Weather History for Warsaw, IN

Change the Weather History Date:

Saturday, November 2, 2013

  Actual Average Record
Temperature  
Mean Temperature 44 °F -  
Max Temperature 48 °F 55 °F 81 °F (1950)
Min Temperature 41 °F 38 °F 22 °F (1991)
Degree Days  
Heating Degree Days 20    
Moisture  
Dew Point 41 °F    
Average Humidity 90    
Maximum Humidity 100    
Minimum Humidity 76    
Precipitation  
Precipitation 0.00 in - - ()
Sea Level Pressure  
Sea Level Pressure 29.88 in    
Wind  
Wind Speed 9 mph (WNW)    
Max Wind Speed 13 mph    
Max Gust Speed 22 mph    
Visibility 8 miles    
Events Rain    
Averages and records for this station are not official NWS values.
T = Trace of Precipitation, MM = Missing Value Source: NWS Daily Summary

Daily Weather History Graph

Daily Weather History Graph

Search for Another Location

Airport:

Trip Planner

Search our weather history database for the weather conditions in past years. The results will help you decide how hot, cold, wet, or windy it might be!

Date:

Astronomy

Nov. 02, 2013 Rise Set
Actual Time 8:16 AM EDT 6:37 PM EDT
Civil Twilight 7:47 AM EDT 7:05 PM EDT
Nautical Twilight 7:14 AM EDT 7:38 PM EDT
Astronomical Twilight 6:42 AM EDT 8:10 PM EDT
Moon 7:12 AM EDT (11/2) 6:08 PM EDT (11/2)
Length of Visible Light 11h 18m
Length of Day
10h 20m
Waning Crescent, 1% of the Moon is Illuminated
Nov 2
Waning Crescent
Nov 3
New
Nov 10
First Quarter
Nov 17
Full
Nov 25
Last Quarter

Hourly Weather History & Observations

Time (EDT) Temp. Windchill Dew Point Humidity Pressure Visibility Wind Dir Wind Speed Gust Speed Precip Events Conditions
12:15 AM 42.8 °F 37.5 °F 42.8 °F 100% 29.73 in 5.0 mi West 9.2 mph - N/A Rain Light Rain
12:35 AM 42.8 °F 36.6 °F 42.8 °F 100% 29.73 in 7.0 mi West 11.5 mph 16.1 mph N/A Rain Light Rain
12:55 AM 42.8 °F 37.0 °F 42.8 °F 100% 29.72 in 7.0 mi West 10.4 mph - N/A Rain Rain
1:15 AM 42.8 °F 37.5 °F 42.8 °F 100% 29.72 in 7.0 mi West 9.2 mph - N/A Rain Rain
1:35 AM 42.8 °F 37.5 °F 42.8 °F 100% 29.72 in 7.0 mi West 9.2 mph - N/A Rain Light Rain
1:55 AM 42.8 °F 38.0 °F 42.8 °F 100% 29.73 in 5.0 mi West 8.1 mph - N/A   Light Drizzle
2:15 AM 42.8 °F 37.5 °F 42.8 °F 100% 29.73 in 5.0 mi West 9.2 mph - N/A Rain Light Rain
2:35 AM 42.8 °F 37.5 °F 42.8 °F 100% 29.73 in 5.0 mi West 9.2 mph - N/A Rain Rain
2:55 AM 42.8 °F 38.6 °F 42.8 °F 100% 29.73 in 5.0 mi West 6.9 mph - N/A   Overcast
3:15 AM 42.8 °F 37.5 °F 42.8 °F 100% 29.73 in 5.0 mi West 9.2 mph - N/A   Light Drizzle
3:35 AM 42.8 °F 39.3 °F 42.8 °F 100% 29.73 in 5.0 mi West 5.8 mph - N/A   Overcast
3:55 AM 42.8 °F 39.3 °F 42.8 °F 100% 29.74 in 5.0 mi West 5.8 mph - N/A   Overcast
4:15 AM 42.8 °F 37.5 °F 42.8 °F 100% 29.74 in 5.0 mi West 9.2 mph - N/A   Overcast
4:35 AM 42.8 °F 37.5 °F 42.8 °F 100% 29.74 in 5.0 mi West 9.2 mph - N/A   Overcast
4:55 AM 42.8 °F 38.6 °F 42.8 °F 100% 29.74 in 5.0 mi West 6.9 mph - N/A   Overcast
5:15 AM 42.8 °F 38.0 °F 42.8 °F 100% 29.75 in 5.0 mi West 8.1 mph - N/A   Overcast
5:35 AM 42.8 °F 37.5 °F 42.8 °F 100% 29.75 in 5.0 mi West 9.2 mph - N/A   Overcast
5:55 AM 42.8 °F 38.0 °F 42.8 °F 100% 29.75 in 5.0 mi West 8.1 mph - N/A   Overcast
6:15 AM 42.8 °F 38.0 °F 42.8 °F 100% 29.76 in 5.0 mi West 8.1 mph - N/A   Overcast
6:35 AM 42.8 °F 38.0 °F 42.8 °F 100% 29.77 in 5.0 mi West 8.1 mph - N/A   Overcast
6:55 AM 42.8 °F 38.0 °F 42.8 °F 100% 29.77 in 5.0 mi West 8.1 mph - N/A   Overcast
7:15 AM 42.8 °F 37.5 °F 41.0 °F 93% 29.78 in 4.0 mi WSW 9.2 mph - N/A   Overcast
7:35 AM 42.8 °F 38.0 °F 41.0 °F 93% 29.78 in 4.0 mi West 8.1 mph - N/A   Overcast
7:55 AM 42.8 °F 38.0 °F 41.0 °F 93% 29.78 in 4.0 mi West 8.1 mph - N/A   Overcast
8:15 AM 42.8 °F 37.5 °F 41.0 °F 93% 29.79 in 4.0 mi West 9.2 mph - N/A   Overcast
8:35 AM 41.0 °F 35.2 °F 41.0 °F 100% 29.79 in 3.0 mi West 9.2 mph - N/A   Mostly Cloudy
8:55 AM 42.8 °F 37.5 °F 41.0 °F 93% 29.80 in 3.0 mi West 9.2 mph - N/A   Overcast
9:15 AM 42.8 °F 37.0 °F 41.0 °F 93% 29.81 in 3.0 mi West 10.4 mph - N/A   Overcast
9:35 AM 42.8 °F 37.5 °F 41.0 °F 93% 29.81 in 3.0 mi West 9.2 mph - N/A   Overcast
9:55 AM 42.8 °F 37.0 °F 42.8 °F 100% 29.82 in 3.0 mi West 10.4 mph - N/A   Overcast
10:15 AM 44.6 °F 39.2 °F 42.8 °F 93% 29.82 in 5.0 mi West 10.4 mph - N/A   Overcast
10:35 AM 44.6 °F 38.4 °F 41.0 °F 87% 29.83 in 5.0 mi West 12.7 mph 16.1 mph N/A   Overcast
10:55 AM 44.6 °F 39.2 °F 41.0 °F 87% 29.83 in 7.0 mi WNW 10.4 mph - N/A Rain Light Rain
11:15 AM 44.6 °F 38.8 °F 42.8 °F 93% 29.84 in 7.0 mi West 11.5 mph - N/A   Light Drizzle
11:35 AM 44.6 °F 38.4 °F 42.8 °F 93% 29.85 in 10.0 mi West 12.7 mph - N/A   Overcast
11:55 AM 44.6 °F 39.2 °F 42.8 °F 93% 29.86 in 10.0 mi West 10.4 mph - N/A   Overcast
1:15 PM 48.2 °F - 41.0 °F 76% 29.88 in 10.0 mi WNW 9.2 mph - N/A   Overcast
1:35 PM 48.2 °F - 41.0 °F 76% 29.88 in 10.0 mi NW 9.2 mph - N/A   Overcast
1:55 PM 48.2 °F - 41.0 °F 76% 29.89 in 10.0 mi NW 9.2 mph - N/A   Overcast
2:15 PM 44.6 °F 40.2 °F 41.0 °F 87% 29.89 in 10.0 mi North 8.1 mph - N/A Rain Light Rain
2:35 PM 44.6 °F 40.2 °F 41.0 °F 87% 29.90 in 10.0 mi NW 8.1 mph - N/A Rain Rain
2:55 PM 44.6 °F 42.2 °F 41.0 °F 87% 29.90 in 10.0 mi WNW 4.6 mph - N/A Rain Light Rain
3:15 PM 44.6 °F 42.2 °F 42.8 °F 93% 29.91 in 10.0 mi West 4.6 mph - N/A   Overcast
3:35 PM 46.4 °F 43.5 °F 42.8 °F 87% 29.91 in 10.0 mi West 5.8 mph - N/A   Overcast
3:55 PM 44.6 °F 38.8 °F 41.0 °F 87% 29.93 in 10.0 mi NNW 11.5 mph 21.9 mph N/A Rain Light Rain
4:15 PM 42.8 °F 37.0 °F 39.2 °F 87% 29.94 in 10.0 mi NNW 10.4 mph 17.3 mph N/A Rain Rain
4:35 PM 42.8 °F 38.6 °F 41.0 °F 93% 29.95 in 10.0 mi NW 6.9 mph - N/A Rain Light Rain
4:55 PM 44.6 °F 39.7 °F 41.0 °F 87% 29.95 in 10.0 mi NW 9.2 mph - N/A   Overcast
5:15 PM 44.6 °F 39.7 °F 41.0 °F 87% 29.96 in 10.0 mi WNW 9.2 mph - N/A   Overcast
5:35 PM 44.6 °F 39.7 °F 41.0 °F 87% 29.97 in 10.0 mi NW 9.2 mph - N/A   Overcast
5:55 PM 44.6 °F 40.2 °F 41.0 °F 87% 29.98 in 10.0 mi WNW 8.1 mph - N/A   Overcast
6:15 PM 44.6 °F 39.2 °F 41.0 °F 87% 29.98 in 10.0 mi NW 10.4 mph - N/A   Overcast
6:35 PM 44.6 °F 39.2 °F 37.4 °F 76% 29.99 in 10.0 mi NW 10.4 mph - N/A   Mostly Cloudy
6:55 PM 42.8 °F 37.5 °F 35.6 °F 76% 30.00 in 10.0 mi NW 9.2 mph - N/A   Overcast
7:15 PM 42.8 °F 38.6 °F 37.4 °F 81% 30.01 in 10.0 mi NW 6.9 mph - N/A   Overcast
7:35 PM 42.8 °F 38.0 °F 37.4 °F 81% 30.02 in 10.0 mi WNW 8.1 mph - N/A   Overcast
7:55 PM 42.8 °F 38.0 °F 37.4 °F 81% 30.03 in 10.0 mi WNW 8.1 mph - N/A   Overcast
8:15 PM 42.8 °F 38.6 °F 35.6 °F 76% 30.04 in 10.0 mi NW 6.9 mph - N/A   Overcast
8:35 PM 42.8 °F 38.6 °F 35.6 °F 76% 30.05 in 10.0 mi WNW 6.9 mph - N/A   Overcast
8:55 PM 42.8 °F 39.3 °F 35.6 °F 76% 30.05 in 10.0 mi NW 5.8 mph - N/A   Overcast
9:15 PM 42.8 °F 38.6 °F 35.6 °F 76% 30.06 in 10.0 mi NW 6.9 mph - N/A   Overcast
9:35 PM 42.8 °F 38.0 °F 35.6 °F 76% 30.06 in 10.0 mi NW 8.1 mph - N/A   Overcast
9:55 PM 42.8 °F 39.3 °F 35.6 °F 76% 30.07 in 10.0 mi WNW 5.8 mph - N/A   Overcast
10:15 PM 41.0 °F 36.4 °F 35.6 °F 81% 30.08 in 10.0 mi West 6.9 mph - N/A   Overcast
10:35 PM 41.0 °F 37.1 °F 35.6 °F 81% 30.08 in 10.0 mi WNW 5.8 mph - N/A   Overcast
10:55 PM 41.0 °F 39.0 °F 37.4 °F 87% 30.09 in 10.0 mi WNW 3.5 mph - N/A   Overcast
11:15 PM 41.0 °F 37.1 °F 37.4 °F 87% 30.09 in 10.0 mi West 5.8 mph - N/A   Overcast
11:35 PM 41.0 °F 38.0 °F 37.4 °F 87% 30.10 in 10.0 mi West 4.6 mph - N/A   Overcast
11:55 PM 41.0 °F 39.0 °F 37.4 °F 87% 30.10 in 10.0 mi West 3.5 mph - N/A   Overcast